[[{"header":{"parameterUnit":"m.s-1","parameterCategory":1,"la1":30.2991,"la2":30.254,"lo1":-89.0895,"lo2":-89.0444,"dx":0.0017,"dy":0.0017,"nx":28,"ny":28,"refTime":"2023-01-27T09:00:00:Z","depth":0,"parameterNumber":2,"parameterNumberName":"U-component_of_WINDS"},"data":[0,0,0,0,0,0,0,0,0,0,0,0,0,0,0,0,0,0,0,0,0,0,0,0,0,0,0,0,0,0,0,0,0,0,0,0,0,0,0,0,0,0,0,0,0,0,0,0,0,0,0,0,0,0,0,0,0,0,-1.6291,-1.6292,0,-1.6331,-1.6331,-1.6332,-1.6298,-1.6297,-1.6296,-1.6294,-1.6337,-1.6339,-1.6341,0,0,0,0,0,0,0,0,0,0,0,0,0,-1.6189,-1.6191,-1.6291,-1.6292,-1.6292,-1.6331,-1.6331,-1.6332,-1.6299,-1.6297,-1.6295,-1.6294,-1.6336,-1.6339,-1.6342,0,0,0,0,0,0,0,0,0,0,0,0,0,-1.6231,-1.6191,-1.6291,-1.628,-1.628,-1.6331,-1.6331,-1.6332,-1.6299,-1.6297,-1.6295,-1.6293,-1.6335,-1.6338,-1.6342,-1.6406,0,0,-1.6353,-1.6355,0,0,0,0,0,0,0,0,-1.6229,-1.6235,-1.6281,-1.6281,-1.628,-1.6307,-1.6311,-1.6357,-1.6299,-1.6292,-1.6294,-1.6292,-1.6329,-1.6333,-1.6345,-1.6408,-1.641,-1.6353,-1.6356,-1.6357,-1.6358,0,0,0,0,0,0,0,-1.6226,-1.6233,-1.6307,-1.6282,-1.6282,-1.6274,-1.6278,-1.6319,-1.6322,-1.6292,-1.629,-1.6295,-1.6328,-1.6341,-1.6346,-1.6411,-1.6353,-1.6357,-1.6359,-1.636,-1.6529,-1.6532,0,0,0,0,0,0,-1.6224,-1.6231,-1.6306,-1.6308,-1.6249,-1.6277,-1.6282,-1.6301,-1.6321,-1.6322,-1.6297,-1.6293,-1.6336,-1.6341,-1.6347,-1.6424,-1.6357,-1.6361,-1.6363,-1.6527,-1.653,-1.6532,0,0,0,0,0,0,-1.6222,-1.6231,-1.6304,-1.6269,-1.6278,-1.6281,-1.6303,-1.6303,-1.6316,-1.6324,-1.6325,-1.631,-1.6335,-1.6342,-1.6392,-1.6425,-1.6362,-1.6366,-1.6524,-1.6528,-1.6531,-1.6578,0,0,0,0,0,0,-1.6219,-1.623,-1.6254,-1.627,-1.628,-1.6348,-1.6305,-1.6305,-1.6322,-1.6318,-1.6337,-1.6338,-1.6334,-1.6386,-1.6395,-1.6429,-1.6368,-1.6521,-1.6526,-1.653,-1.6573,-1.6583,-1.659,0,0,0,0,0,-1.6215,-1.6266,-1.6256,-1.6265,-1.631,-1.635,-1.6356,-1.6349,-1.6325,-1.635,-1.6355,-1.6337,-1.642,-1.6392,-1.6402,-1.6436,-1.6519,-1.6525,-1.653,-1.657,-1.6581,-1.659,0,0,0,0,0,0,-1.6256,-1.6268,-1.6257,-1.6314,-1.6331,-1.6344,-1.6375,-1.6361,-1.6386,-1.6381,-1.6373,-1.6377,-1.643,-1.6438,-1.6407,-1.65,-1.6466,-1.6473,-1.6493,-1.6503,-1.6512,-1.6509,-1.6371,0,0,0,0,0,-1.6271,-1.6302,-1.6311,-1.6361,-1.637,-1.6371,-1.6388,-1.6382,-1.64,-1.6407,-1.6416,-1.6434,-1.6464,-1.6484,-1.6512,-1.6574,-1.6578,-1.6603,-1.6612,-1.6618,-1.6625,-1.6659,-1.667,-1.6549,-1.6549,-1.6549,0,0,-1.6304,-1.6314,-1.6334,-1.637,-1.6382,-1.6415,-1.6378,-1.6414,-1.6438,-1.6413,-1.646,-1.6467,-1.6487,-1.6544,-1.6569,-1.6552,-1.6659,-1.6625,-1.663,-1.6633,-1.6665,-1.6677,-1.6687,-1.6553,-1.6552,-1.6552,0,0,-1.638,-1.6391,-1.6433,-1.6446,-1.6465,-1.6465,-1.6476,-1.6491,-1.6495,-1.6542,-1.6524,-1.6553,-1.6604,-1.6619,-1.6634,-1.6715,-1.67,-1.6725,-1.6769,-1.6802,-1.6811,-1.682,-1.6849,-1.686,-1.6731,-1.6731,-1.6731,0,-1.6418,-1.6466,-1.6457,-1.6495,-1.6511,-1.6488,-1.6532,-1.6545,-1.6573,-1.6585,-1.6565,-1.6629,-1.6641,-1.6701,-1.6721,-1.6733,-1.6745,-1.6723,-1.681,-1.6819,-1.6827,-1.6854,-1.6866,-1.6734,-1.6734,-1.6733,-1.6733,0,-1.6512,-1.6545,-1.6578,-1.6604,-1.6624,-1.6664,-1.6662,-1.6683,-1.6675,-1.6678,-1.6726,-1.674,-1.677,-1.6784,-1.6776,-1.6843,-1.6831,-1.6811,-1.6777,-1.6841,-1.6867,-1.6878,-1.6738,-1.6737,-1.6736,-1.6736,0,0,-1.6615,-1.6635,-1.6648,-1.6659,-1.6678,-1.6705,-1.6744,-1.6773,-1.6792,-1.6811,-1.6845,-1.6889,-1.687,-1.6887,-1.6881,-1.691,-1.6974,-1.6886,-1.6886,-1.6902,-1.7048,-1.7063,-1.7075,-1.6963,-1.6965,-1.6967,-1.7046,0,-1.6692,-1.676,-1.6753,-1.6818,-1.6849,-1.6828,-1.6862,-1.6878,-1.6881,-1.6909,-1.6912,-1.6944,-1.6917,-1.6927,-1.6954,-1.696,-1.7003,-1.6954,-1.6995,-1.6996,-1.6991,-1.7089,-1.7105,-1.7179,-1.7056,-1.7058,-1.7059,0,-1.6791,-1.6813,-1.6881,-1.6895,-1.6908,-1.6939,-1.6965,-1.6991,-1.7009,-1.7009,-1.7028,-1.7017,-1.7057,-1.7021,-1.7077,-1.7044,-1.706,-1.7065,-1.7068,-1.7072,-1.7032,-1.7096,-1.7203,-1.7214,-1.7075,-1.7074,-1.7073,0,-1.686,-1.6907,-1.6954,-1.6964,-1.6982,-1.7004,-1.7013,-1.7028,-1.7046,-1.7069,-1.7081,-1.7108,-1.7124,-1.7145,-1.7142,-1.7117,-1.7199,-1.7163,-1.7201,-1.7202,-1.722,-1.7219,-1.7331,-1.723,-1.723,-1.723,-1.7229,0,-1.6947,-1.6989,-1.6985,-1.7013,-1.706,-1.7052,-1.7099,-1.7105,-1.7119,-1.7149,-1.7132,-1.7161,-1.7155,-1.7184,-1.7182,-1.7228,-1.7235,-1.7237,-1.7236,-1.7239,-1.7239,-1.725,-1.7245,-1.7233,-1.7232,-1.7231,-1.7231,0,-1.7032,-1.7031,-1.708,-1.7092,-1.7096,-1.7131,-1.7142,-1.7169,-1.717,-1.7209,-1.7217,-1.722,-1.7253,-1.7252,-1.729,-1.7288,-1.7346,-1.7339,-1.734,-1.7338,-1.7377,-1.7373,-1.75,-1.7517,-1.7404,-1.7405,-1.7406,0,-1.7088,-1.712,-1.7135,-1.7154,-1.7164,-1.7194,-1.7212,-1.7205,-1.7224,-1.7247,-1.7272,-1.7303,-1.7327,-1.7381,-1.7387,-1.7416,-1.7409,-1.7452,-1.7414,-1.7415,-1.7411,-1.7409,-1.7412,-1.746,-1.7461,-1.7462,-1.7463,0,-1.7188,-1.7185,-1.7211,-1.7237,-1.7259,-1.7279,-1.7297,-1.7314,-1.7309,-1.7332,-1.7364,-1.7384,-1.7421,-1.7453,-1.748,-1.749,-1.7476,-1.7475,-1.7485,-1.7488,-1.7488,-1.7489,-1.7361,-1.7472,-1.7471,-1.747,-1.747,-1.7469,-1.726,-1.7288,-1.7303,-1.7332,-1.7345,-1.7363,-1.7389,-1.7394,-1.7421,-1.7451,-1.7445,-1.7482,-1.7499,-1.7534,-1.7546,-1.7575,-1.756,-1.7575,-1.7579,-1.7583,-1.7588,-1.7483,-1.758,-1.758,-1.758,-1.758,-1.7579,0,-1.7359,-1.7368,-1.7395,-1.7421,-1.7444,-1.7428,-1.7447,-1.7468,-1.7501,-1.7517,-1.7542,-1.758,-1.761,-1.7618,-1.7647,-1.7669,-1.7664,-1.7677,-1.7676,-1.7678,-1.7599,-1.7587,-1.7681,-1.7681,-1.7681,-1.7681,-1.7681,-1.7681,-1.7414,-1.7459,-1.7458,-1.751,-1.7519,-1.7554,-1.7567,-1.7583,-1.7596,-1.7639,-1.7664,-1.7668,-1.7682,-1.7712,-1.7739,-1.774,-1.7752,-1.7769,-1.7768,-1.7694,-1.7684,-1.7674,-1.7663,-1.7771,-1.7771,-1.7844,-1.7845,-1.7846]},{"header":{"parameterUnit":"m.s-1","parameterCategory":1,"la1":30.2991,"la2":30.254,"lo1":-89.0895,"lo2":-89.0444,"dx":0.0017,"dy":0.0017,"nx":28,"ny":28,"refTime":"2023-01-27T09:00:00:Z","depth":0,"parameterNumber":3,"parameterNumberName":"V-component_of_WINDS"},"data":[0,0,0,0,0,0,0,0,0,0,0,0,0,0,0,0,0,0,0,0,0,0,0,0,0,0,0,0,0,0,0,0,0,0,0,0,0,0,0,0,0,0,0,0,0,0,0,0,0,0,0,0,0,0,0,0,0,0,2.2551,2.2551,0,2.258,2.2581,2.2581,2.2561,2.2561,2.256,2.2559,2.2587,2.2589,2.2591,0,0,0,0,0,0,0,0,0,0,0,0,0,2.2474,2.2476,2.2551,2.2551,2.2551,2.258,2.2581,2.2581,2.2562,2.2561,2.2559,2.2558,2.2587,2.2589,2.2591,0,0,0,0,0,0,0,0,0,0,0,0,0,2.2506,2.2476,2.2551,2.2545,2.2545,2.258,2.2581,2.2581,2.2562,2.2561,2.2559,2.2558,2.2586,2.2589,2.2591,2.2633,0,0,2.2598,2.2599,0,0,0,0,0,0,0,0,2.2504,2.2509,2.2546,2.2546,2.2545,2.2566,2.2564,2.2598,2.2562,2.2555,2.2559,2.2557,2.2581,2.2584,2.2592,2.2634,2.2635,2.2598,2.26,2.2601,2.2602,0,0,0,0,0,0,0,2.2502,2.2507,2.2562,2.2546,2.2546,2.254,2.2543,2.2571,2.2575,2.2556,2.2555,2.2558,2.2581,2.259,2.2593,2.2635,2.2598,2.26,2.2602,2.2603,2.271,2.2712,0,0,0,0,0,0,2.2501,2.2506,2.2561,2.2563,2.2521,2.2543,2.2546,2.2561,2.2575,2.2576,2.256,2.2557,2.2587,2.259,2.2594,2.2642,2.2601,2.2603,2.2605,2.2709,2.2711,2.2712,0,0,0,0,0,0,2.2499,2.2506,2.256,2.2534,2.2541,2.2546,2.2562,2.2562,2.2571,2.2578,2.2578,2.2568,2.2586,2.259,2.2623,2.2643,2.2604,2.2606,2.2707,2.271,2.2712,2.2739,0,0,0,0,0,0,2.2497,2.2505,2.2522,2.2535,2.2542,2.2589,2.2563,2.2563,2.2576,2.2573,2.2586,2.2587,2.2585,2.2619,2.2625,2.2645,2.2608,2.2706,2.2708,2.2711,2.2737,2.2742,2.2747,0,0,0,0,0,2.2494,2.2529,2.2523,2.253,2.2563,2.2591,2.2595,2.2592,2.2577,2.2593,2.2597,2.2587,2.264,2.2623,2.2629,2.265,2.2704,2.2708,2.2711,2.2734,2.2741,2.2747,0,0,0,0,0,0,2.2518,2.253,2.2524,2.2564,2.2576,2.2587,2.2608,2.26,2.2617,2.2614,2.2609,2.2612,2.2646,2.2651,2.2632,2.269,2.2669,2.2674,2.2685,2.2692,2.2697,2.2694,2.261,0,0,0,0,0,2.2528,2.255,2.2559,2.2593,2.26,2.2603,2.2615,2.2612,2.2624,2.2629,2.2636,2.2648,2.2667,2.268,2.2698,2.2738,2.2739,2.2755,2.276,2.2765,2.2768,2.2787,2.2794,2.2723,2.2723,2.2723,0,0,2.2548,2.2558,2.2572,2.2598,2.2608,2.2629,2.2607,2.2632,2.2648,2.2633,2.2663,2.2669,2.2682,2.2717,2.2733,2.2723,2.2788,2.2769,2.2772,2.2773,2.2791,2.2798,2.2804,2.2725,2.2725,2.2724,0,0,2.2596,2.2606,2.2635,2.2645,2.2659,2.2661,2.2668,2.268,2.2683,2.2713,2.2702,2.2721,2.2755,2.2764,2.2773,2.2823,2.2813,2.2829,2.2856,2.2875,2.288,2.2885,2.2901,2.2907,2.2833,2.2833,2.2833,0,2.2619,2.2653,2.265,2.2675,2.2686,2.2675,2.2702,2.2712,2.2732,2.2739,2.2728,2.2769,2.2777,2.2813,2.2826,2.2834,2.284,2.2827,2.288,2.2885,2.2889,2.2904,2.2911,2.2835,2.2835,2.2835,2.2835,0,2.2679,2.2703,2.2724,2.2743,2.2757,2.2783,2.2784,2.2798,2.2793,2.2796,2.2826,2.2836,2.2855,2.2863,2.286,2.2899,2.2892,2.288,2.2859,2.2898,2.2912,2.2918,2.2838,2.2837,2.2836,2.2836,0,0,2.2743,2.276,2.2768,2.2775,2.279,2.2808,2.2833,2.2852,2.2863,2.2877,2.2897,2.2925,2.2914,2.2924,2.2922,2.2938,2.2975,2.2924,2.2924,2.2932,2.3017,2.3025,2.3032,2.297,2.2971,2.2972,2.3016,0,2.279,2.2835,2.2833,2.2874,2.2894,2.2883,2.2905,2.2915,2.2918,2.2935,2.2938,2.2957,2.2942,2.2948,2.2964,2.2968,2.2992,2.2965,2.2986,2.2987,2.2982,2.304,2.3048,2.3089,2.3021,2.3022,2.3023,0,2.2852,2.2867,2.291,2.2921,2.2929,2.2949,2.2965,2.2982,2.2993,2.2994,2.3005,2.2999,2.3024,2.3003,2.3035,2.3016,2.3025,2.3028,2.3029,2.303,2.3006,2.304,2.3103,2.3108,2.3032,2.3032,2.3031,0,2.2891,2.2923,2.2953,2.296,2.2973,2.2987,2.2993,2.3003,2.3014,2.3029,2.3035,2.3052,2.3061,2.3074,2.3072,2.3057,2.3104,2.3084,2.3104,2.3104,2.3114,2.3113,2.3176,2.3122,2.3122,2.3122,2.3122,0,2.2943,2.297,2.297,2.2988,2.3017,2.3014,2.3042,2.3047,2.3056,2.3073,2.3065,2.3082,2.3079,2.3096,2.3094,2.312,2.3125,2.3125,2.3124,2.3125,2.3125,2.313,2.3126,2.3124,2.3123,2.3123,2.3123,0,2.2992,2.2994,2.3025,2.3035,2.3038,2.3058,2.3066,2.3082,2.3084,2.3107,2.3112,2.3115,2.3133,2.3133,2.3155,2.3154,2.3185,2.3182,2.3181,2.318,2.32,2.3197,2.3267,2.3276,2.3218,2.3218,2.3219,0,2.3025,2.3045,2.3056,2.3068,2.3075,2.3093,2.3104,2.3102,2.3114,2.3128,2.3142,2.316,2.3174,2.3204,2.3208,2.3224,2.322,2.3243,2.3222,2.3221,2.3218,2.3216,2.3217,2.3247,2.3247,2.3248,2.3248,0,2.3082,2.3081,2.3098,2.3114,2.3128,2.314,2.3152,2.3162,2.3161,2.3174,2.3193,2.3204,2.3226,2.3243,2.3258,2.3263,2.3255,2.3255,2.326,2.3261,2.3259,2.3258,2.3191,2.3253,2.3253,2.3252,2.3252,2.3252,2.3122,2.3138,2.3149,2.3167,2.3176,2.3187,2.3202,2.3206,2.3222,2.3239,2.3237,2.3258,2.3267,2.3287,2.3293,2.3309,2.33,2.3309,2.331,2.3312,2.3313,2.3258,2.3312,2.3312,2.3312,2.3311,2.3311,0,2.3177,2.3183,2.32,2.3216,2.323,2.3222,2.3234,2.3246,2.3265,2.3275,2.3289,2.331,2.3326,2.3331,2.3346,2.3358,2.3354,2.3362,2.336,2.3361,2.3321,2.3314,2.3364,2.3364,2.3364,2.3364,2.3364,2.3364,2.3207,2.3234,2.3234,2.3265,2.327,2.3291,2.3298,2.3308,2.3315,2.3339,2.3353,2.3356,2.3363,2.3379,2.3394,2.3395,2.34,2.3409,2.3408,2.337,2.3364,2.3359,2.3352,2.341,2.341,2.3447,2.3447,2.3447]}]]